TimeCST,TemperatureF,Dew PointF,Humidity,Sea Level PressureIn,VisibilityMPH,Wind Direction,Wind SpeedMPH,Gust SpeedMPH,PrecipitationIn,Events,Conditions,WindDirDegrees,DateUTC
12:53 AM,25.0,9.0,51,30.11,10.0,West,11.5,-,N/A,,Clear,270,2014-01-19 06:53:00
1:53 AM,24.1,10.0,55,30.08,10.0,West,10.4,-,N/A,,Clear,260,2014-01-19 07:53:00
2:53 AM,23.0,10.9,60,30.09,10.0,WSW,9.2,-,N/A,,Clear,250,2014-01-19 08:53:00
3:53 AM,21.9,12.0,66,30.07,10.0,WNW,6.9,-,N/A,,Clear,290,2014-01-19 09:53:00
4:53 AM,26.1,14.0,60,30.04,10.0,West,12.7,-,N/A,,Clear,270,2014-01-19 10:53:00
5:53 AM,26.1,15.1,63,30.04,10.0,WSW,12.7,-,N/A,,Clear,250,2014-01-19 11:53:00
6:53 AM,24.1,15.1,69,30.05,10.0,WSW,9.2,-,N/A,,Clear,250,2014-01-19 12:53:00
7:53 AM,26.1,16.0,66,30.04,10.0,West,16.1,-,N/A,,Clear,270,2014-01-19 13:53:00
8:53 AM,30.9,18.0,59,30.03,10.0,WSW,11.5,-,N/A,,Clear,250,2014-01-19 14:53:00
9:53 AM,37.9,19.0,47,30.02,10.0,West,12.7,-,N/A,,Clear,280,2014-01-19 15:53:00
10:53 AM,46.0,19.9,35,30.00,10.0,West,13.8,-,N/A,,Clear,270,2014-01-19 16:53:00
11:53 AM,57.0,21.0,25,29.96,10.0,WNW,16.1,-,N/A,,Clear,290,2014-01-19 17:53:00
12:53 PM,63.0,18.0,18,29.91,10.0,NW,19.6,28.8,N/A,,Clear,310,2014-01-19 18:53:00
1:53 PM,64.9,17.1,16,29.88,10.0,WNW,17.3,-,N/A,,Clear,300,2014-01-19 19:53:00
2:53 PM,68.0,14.0,12,29.87,10.0,NW,16.1,-,N/A,,Clear,310,2014-01-19 20:53:00
3:53 PM,66.9,14.0,13,29.88,10.0,WNW,16.1,-,N/A,,Clear,290,2014-01-19 21:53:00
4:53 PM,64.0,12.9,14,29.88,10.0,WNW,8.1,-,N/A,,Clear,300,2014-01-19 22:53:00
5:53 PM,57.0,14.0,18,29.89,10.0,WNW,8.1,-,N/A,,Clear,290,2014-01-19 23:53:00
6:53 PM,48.0,12.0,24,29.91,10.0,WNW,9.2,-,N/A,,Clear,300,2014-01-20 00:53:00
7:53 PM,43.0,12.9,30,29.93,10.0,SW,9.2,-,N/A,,Clear,230,2014-01-20 01:53:00
8:53 PM,37.9,12.0,35,29.94,10.0,WSW,10.4,-,N/A,,Clear,250,2014-01-20 02:53:00
9:53 PM,36.0,12.0,37,29.95,10.0,West,5.8,-,N/A,,Clear,280,2014-01-20 03:53:00
10:53 PM,35.1,12.9,40,29.94,10.0,West,5.8,-,N/A,,Clear,270,2014-01-20 04:53:00
11:53 PM,34.0,12.9,42,29.92,10.0,West,5.8,-,N/A,,Clear,280,2014-01-20 05:53:00